﻿_id,datum,uhrzeit_start,uhrzeit_ende,zaehlstelle,richtung_1,richtung_2,gesamt
1,2023.04.01,00:00:00,00:15:00,Arnulf,2,0,2
2,2023.04.01,00:15:00,00:30:00,Arnulf,4,1,5
3,2023.04.01,00:30:00,00:45:00,Arnulf,2,0,2
4,2023.04.01,00:45:00,01:00:00,Arnulf,3,0,3
5,2023.04.01,01:00:00,01:15:00,Arnulf,3,0,3
6,2023.04.01,01:15:00,01:30:00,Arnulf,0,0,0
7,2023.04.01,01:30:00,01:45:00,Arnulf,2,0,2
8,2023.04.01,01:45:00,02:00:00,Arnulf,0,0,0
9,2023.04.01,02:00:00,02:15:00,Arnulf,3,1,4
10,2023.04.01,02:15:00,02:30:00,Arnulf,3,1,4
11,2023.04.01,02:30:00,02:45:00,Arnulf,1,0,1
12,2023.04.01,02:45:00,03:00:00,Arnulf,1,0,1
13,2023.04.01,03:00:00,03:15:00,Arnulf,0,0,0
14,2023.04.01,03:15:00,03:30:00,Arnulf,0,0,0
15,2023.04.01,03:30:00,03:45:00,Arnulf,1,3,4
16,2023.04.01,03:45:00,04:00:00,Arnulf,0,1,1
17,2023.04.01,04:00:00,04:15:00,Arnulf,1,0,1
18,2023.04.01,04:15:00,04:30:00,Arnulf,1,0,1
19,2023.04.01,04:30:00,04:45:00,Arnulf,1,0,1
20,2023.04.01,04:45:00,05:00:00,Arnulf,0,0,0
21,2023.04.01,05:00:00,05:15:00,Arnulf,1,0,1
22,2023.04.01,05:15:00,05:30:00,Arnulf,1,0,1
23,2023.04.01,05:30:00,05:45:00,Arnulf,0,0,0
24,2023.04.01,05:45:00,06:00:00,Arnulf,0,0,0
25,2023.04.01,06:00:00,06:15:00,Arnulf,1,1,2
26,2023.04.01,06:15:00,06:30:00,Arnulf,4,0,4
27,2023.04.01,06:30:00,06:45:00,Arnulf,4,1,5
28,2023.04.01,06:45:00,07:00:00,Arnulf,4,2,6
29,2023.04.01,07:00:00,07:15:00,Arnulf,0,1,1
30,2023.04.01,07:15:00,07:30:00,Arnulf,1,1,2
31,2023.04.01,07:30:00,07:45:00,Arnulf,3,2,5
32,2023.04.01,07:45:00,08:00:00,Arnulf,5,0,5
33,2023.04.01,08:00:00,08:15:00,Arnulf,4,0,4
34,2023.04.01,08:15:00,08:30:00,Arnulf,5,0,5
35,2023.04.01,08:30:00,08:45:00,Arnulf,2,0,2
36,2023.04.01,08:45:00,09:00:00,Arnulf,3,0,3
37,2023.04.01,09:00:00,09:15:00,Arnulf,5,0,5
38,2023.04.01,09:15:00,09:30:00,Arnulf,2,0,2
39,2023.04.01,09:30:00,09:45:00,Arnulf,7,0,7
40,2023.04.01,09:45:00,10:00:00,Arnulf,17,0,17
41,2023.04.01,10:00:00,10:15:00,Arnulf,12,0,12
42,2023.04.01,10:15:00,10:30:00,Arnulf,5,0,5
43,2023.04.01,10:30:00,10:45:00,Arnulf,12,0,12
44,2023.04.01,10:45:00,11:00:00,Arnulf,3,0,3
45,2023.04.01,11:00:00,11:15:00,Arnulf,12,1,13
46,2023.04.01,11:15:00,11:30:00,Arnulf,19,1,20
47,2023.04.01,11:30:00,11:45:00,Arnulf,8,1,9
48,2023.04.01,11:45:00,12:00:00,Arnulf,20,3,23
49,2023.04.01,12:00:00,12:15:00,Arnulf,18,0,18
50,2023.04.01,12:15:00,12:30:00,Arnulf,10,1,11
51,2023.04.01,12:30:00,12:45:00,Arnulf,7,0,7
52,2023.04.01,12:45:00,13:00:00,Arnulf,11,0,11
53,2023.04.01,13:00:00,13:15:00,Arnulf,8,1,9
54,2023.04.01,13:15:00,13:30:00,Arnulf,9,0,9
55,2023.04.01,13:30:00,13:45:00,Arnulf,6,1,7
56,2023.04.01,13:45:00,14:00:00,Arnulf,12,0,12
57,2023.04.01,14:00:00,14:15:00,Arnulf,5,1,6
58,2023.04.01,14:15:00,14:30:00,Arnulf,5,0,5
59,2023.04.01,14:30:00,14:45:00,Arnulf,4,2,6
60,2023.04.01,14:45:00,15:00:00,Arnulf,4,0,4
61,2023.04.01,15:00:00,15:15:00,Arnulf,7,2,9
62,2023.04.01,15:15:00,15:30:00,Arnulf,11,0,11
63,2023.04.01,15:30:00,15:45:00,Arnulf,9,0,9
64,2023.04.01,15:45:00,16:00:00,Arnulf,4,0,4
65,2023.04.01,16:00:00,16:15:00,Arnulf,7,0,7
66,2023.04.01,16:15:00,16:30:00,Arnulf,6,2,8
67,2023.04.01,16:30:00,16:45:00,Arnulf,8,0,8
68,2023.04.01,16:45:00,17:00:00,Arnulf,7,1,8
69,2023.04.01,17:00:00,17:15:00,Arnulf,8,1,9
70,2023.04.01,17:15:00,17:30:00,Arnulf,9,0,9
71,2023.04.01,17:30:00,17:45:00,Arnulf,6,0,6
72,2023.04.01,17:45:00,18:00:00,Arnulf,6,0,6
73,2023.04.01,18:00:00,18:15:00,Arnulf,7,0,7
74,2023.04.01,18:15:00,18:30:00,Arnulf,11,1,12
75,2023.04.01,18:30:00,18:45:00,Arnulf,12,0,12
76,2023.04.01,18:45:00,19:00:00,Arnulf,10,0,10
77,2023.04.01,19:00:00,19:15:00,Arnulf,10,1,11
78,2023.04.01,19:15:00,19:30:00,Arnulf,9,1,10
79,2023.04.01,19:30:00,19:45:00,Arnulf,2,1,3
80,2023.04.01,19:45:00,20:00:00,Arnulf,3,1,4
81,2023.04.01,20:00:00,20:15:00,Arnulf,5,1,6
82,2023.04.01,20:15:00,20:30:00,Arnulf,8,0,8
83,2023.04.01,20:30:00,20:45:00,Arnulf,4,0,4
84,2023.04.01,20:45:00,21:00:00,Arnulf,1,0,1
85,2023.04.01,21:00:00,21:15:00,Arnulf,6,3,9
86,2023.04.01,21:15:00,21:30:00,Arnulf,3,0,3
87,2023.04.01,21:30:00,21:45:00,Arnulf,5,0,5
88,2023.04.01,21:45:00,22:00:00,Arnulf,5,1,6
89,2023.04.01,22:00:00,22:15:00,Arnulf,1,0,1
90,2023.04.01,22:15:00,22:30:00,Arnulf,1,1,2
91,2023.04.01,22:30:00,22:45:00,Arnulf,4,0,4
92,2023.04.01,22:45:00,23:00:00,Arnulf,7,0,7
93,2023.04.01,23:00:00,23:15:00,Arnulf,1,0,1
94,2023.04.01,23:15:00,23:30:00,Arnulf,3,1,4
95,2023.04.01,23:30:00,23:45:00,Arnulf,3,0,3
96,2023.04.01,23:45:00,00:00:00,Arnulf,3,2,5
97,2023.04.02,00:00:00,00:15:00,Arnulf,2,1,3
98,2023.04.02,00:15:00,00:30:00,Arnulf,0,0,0
99,2023.04.02,00:30:00,00:45:00,Arnulf,0,0,0
100,2023.04.02,00:45:00,01:00:00,Arnulf,4,0,4
101,2023.04.02,01:00:00,01:15:00,Arnulf,1,1,2
102,2023.04.02,01:15:00,01:30:00,Arnulf,1,0,1
103,2023.04.02,01:30:00,01:45:00,Arnulf,1,0,1
104,2023.04.02,01:45:00,02:00:00,Arnulf,1,0,1
105,2023.04.02,02:00:00,02:15:00,Arnulf,6,0,6
106,2023.04.02,02:15:00,02:30:00,Arnulf,1,0,1
107,2023.04.02,02:30:00,02:45:00,Arnulf,1,1,2
108,2023.04.02,02:45:00,03:00:00,Arnulf,4,0,4
109,2023.04.02,03:00:00,03:15:00,Arnulf,2,0,2
110,2023.04.02,03:15:00,03:30:00,Arnulf,2,1,3
111,2023.04.02,03:30:00,03:45:00,Arnulf,1,0,1
112,2023.04.02,03:45:00,04:00:00,Arnulf,1,0,1
113,2023.04.02,04:00:00,04:15:00,Arnulf,0,0,0
114,2023.04.02,04:15:00,04:30:00,Arnulf,2,2,4
115,2023.04.02,04:30:00,04:45:00,Arnulf,2,0,2
116,2023.04.02,04:45:00,05:00:00,Arnulf,1,0,1
117,2023.04.02,05:00:00,05:15:00,Arnulf,1,0,1
118,2023.04.02,05:15:00,05:30:00,Arnulf,0,0,0
119,2023.04.02,05:30:00,05:45:00,Arnulf,1,2,3
120,2023.04.02,05:45:00,06:00:00,Arnulf,0,0,0
121,2023.04.02,06:00:00,06:15:00,Arnulf,0,0,0
122,2023.04.02,06:15:00,06:30:00,Arnulf,2,0,2
123,2023.04.02,06:30:00,06:45:00,Arnulf,2,0,2
124,2023.04.02,06:45:00,07:00:00,Arnulf,0,0,0
125,2023.04.02,07:00:00,07:15:00,Arnulf,3,0,3
126,2023.04.02,07:15:00,07:30:00,Arnulf,4,0,4
127,2023.04.02,07:30:00,07:45:00,Arnulf,2,0,2
128,2023.04.02,07:45:00,08:00:00,Arnulf,1,0,1
129,2023.04.02,08:00:00,08:15:00,Arnulf,3,0,3
130,2023.04.02,08:15:00,08:30:00,Arnulf,1,0,1
131,2023.04.02,08:30:00,08:45:00,Arnulf,4,1,5
132,2023.04.02,08:45:00,09:00:00,Arnulf,8,0,8
133,2023.04.02,09:00:00,09:15:00,Arnulf,5,0,5
134,2023.04.02,09:15:00,09:30:00,Arnulf,5,0,5
135,2023.04.02,09:30:00,09:45:00,Arnulf,9,0,9
136,2023.04.02,09:45:00,10:00:00,Arnulf,10,6,16
137,2023.04.02,10:00:00,10:15:00,Arnulf,4,1,5
138,2023.04.02,10:15:00,10:30:00,Arnulf,3,1,4
139,2023.04.02,10:30:00,10:45:00,Arnulf,6,0,6
140,2023.04.02,10:45:00,11:00:00,Arnulf,10,0,10
141,2023.04.02,11:00:00,11:15:00,Arnulf,7,0,7
142,2023.04.02,11:15:00,11:30:00,Arnulf,8,1,9
143,2023.04.02,11:30:00,11:45:00,Arnulf,15,0,15
144,2023.04.02,11:45:00,12:00:00,Arnulf,12,3,15
145,2023.04.02,12:00:00,12:15:00,Arnulf,7,0,7
146,2023.04.02,12:15:00,12:30:00,Arnulf,12,1,13
147,2023.04.02,12:30:00,12:45:00,Arnulf,11,1,12
148,2023.04.02,12:45:00,13:00:00,Arnulf,12,1,13
149,2023.04.02,13:00:00,13:15:00,Arnulf,9,0,9
150,2023.04.02,13:15:00,13:30:00,Arnulf,13,1,14
151,2023.04.02,13:30:00,13:45:00,Arnulf,8,2,10
152,2023.04.02,13:45:00,14:00:00,Arnulf,4,0,4
153,2023.04.02,14:00:00,14:15:00,Arnulf,16,0,16
154,2023.04.02,14:15:00,14:30:00,Arnulf,3,0,3
155,2023.04.02,14:30:00,14:45:00,Arnulf,18,0,18
156,2023.04.02,14:45:00,15:00:00,Arnulf,7,0,7
157,2023.04.02,15:00:00,15:15:00,Arnulf,10,0,10
158,2023.04.02,15:15:00,15:30:00,Arnulf,6,0,6
159,2023.04.02,15:30:00,15:45:00,Arnulf,2,1,3
160,2023.04.02,15:45:00,16:00:00,Arnulf,3,0,3
161,2023.04.02,16:00:00,16:15:00,Arnulf,1,1,2
162,2023.04.02,16:15:00,16:30:00,Arnulf,2,0,2
163,2023.04.02,16:30:00,16:45:00,Arnulf,7,1,8
164,2023.04.02,16:45:00,17:00:00,Arnulf,9,1,10
165,2023.04.02,17:00:00,17:15:00,Arnulf,1,1,2
166,2023.04.02,17:15:00,17:30:00,Arnulf,5,0,5
167,2023.04.02,17:30:00,17:45:00,Arnulf,3,0,3
168,2023.04.02,17:45:00,18:00:00,Arnulf,10,0,10
169,2023.04.02,18:00:00,18:15:00,Arnulf,6,3,9
170,2023.04.02,18:15:00,18:30:00,Arnulf,3,0,3
171,2023.04.02,18:30:00,18:45:00,Arnulf,9,0,9
172,2023.04.02,18:45:00,19:00:00,Arnulf,6,0,6
173,2023.04.02,19:00:00,19:15:00,Arnulf,5,1,6
174,2023.04.02,19:15:00,19:30:00,Arnulf,9,0,9
175,2023.04.02,19:30:00,19:45:00,Arnulf,8,1,9
176,2023.04.02,19:45:00,20:00:00,Arnulf,4,0,4
177,2023.04.02,20:00:00,20:15:00,Arnulf,7,0,7
178,2023.04.02,20:15:00,20:30:00,Arnulf,10,1,11
179,2023.04.02,20:30:00,20:45:00,Arnulf,2,1,3
180,2023.04.02,20:45:00,21:00:00,Arnulf,3,0,3
181,2023.04.02,21:00:00,21:15:00,Arnulf,1,0,1
182,2023.04.02,21:15:00,21:30:00,Arnulf,1,0,1
183,2023.04.02,21:30:00,21:45:00,Arnulf,4,0,4
184,2023.04.02,21:45:00,22:00:00,Arnulf,2,1,3
185,2023.04.02,22:00:00,22:15:00,Arnulf,2,0,2
186,2023.04.02,22:15:00,22:30:00,Arnulf,1,0,1
187,2023.04.02,22:30:00,22:45:00,Arnulf,3,0,3
188,2023.04.02,22:45:00,23:00:00,Arnulf,0,0,0
189,2023.04.02,23:00:00,23:15:00,Arnulf,4,0,4
190,2023.04.02,23:15:00,23:30:00,Arnulf,0,1,1
191,2023.04.02,23:30:00,23:45:00,Arnulf,1,0,1
192,2023.04.02,23:45:00,00:00:00,Arnulf,0,0,0
193,2023.04.03,00:00:00,00:15:00,Arnulf,0,0,0
194,2023.04.03,00:15:00,00:30:00,Arnulf,1,0,1
195,2023.04.03,00:30:00,00:45:00,Arnulf,0,0,0
196,2023.04.03,00:45:00,01:00:00,Arnulf,0,0,0
197,2023.04.03,01:00:00,01:15:00,Arnulf,1,0,1
198,2023.04.03,01:15:00,01:30:00,Arnulf,0,0,0
199,2023.04.03,01:30:00,01:45:00,Arnulf,0,0,0
200,2023.04.03,01:45:00,02:00:00,Arnulf,0,0,0
201,2023.04.03,02:00:00,02:15:00,Arnulf,0,0,0
202,2023.04.03,02:15:00,02:30:00,Arnulf,0,1,1
203,2023.04.03,02:30:00,02:45:00,Arnulf,0,0,0
204,2023.04.03,02:45:00,03:00:00,Arnulf,1,0,1
205,2023.04.03,03:00:00,03:15:00,Arnulf,0,0,0
206,2023.04.03,03:15:00,03:30:00,Arnulf,0,0,0
207,2023.04.03,03:30:00,03:45:00,Arnulf,0,0,0
208,2023.04.03,03:45:00,04:00:00,Arnulf,1,0,1
209,2023.04.03,04:00:00,04:15:00,Arnulf,0,0,0
210,2023.04.03,04:15:00,04:30:00,Arnulf,0,1,1
211,2023.04.03,04:30:00,04:45:00,Arnulf,2,0,2
212,2023.04.03,04:45:00,05:00:00,Arnulf,3,0,3
213,2023.04.03,05:00:00,05:15:00,Arnulf,0,0,0
214,2023.04.03,05:15:00,05:30:00,Arnulf,1,0,1
215,2023.04.03,05:30:00,05:45:00,Arnulf,5,0,5
216,2023.04.03,05:45:00,06:00:00,Arnulf,1,1,2
217,2023.04.03,06:00:00,06:15:00,Arnulf,4,1,5
218,2023.04.03,06:15:00,06:30:00,Arnulf,5,0,5
219,2023.04.03,06:30:00,06:45:00,Arnulf,7,1,8
220,2023.04.03,06:45:00,07:00:00,Arnulf,7,0,7
221,2023.04.03,07:00:00,07:15:00,Arnulf,11,0,11
222,2023.04.03,07:15:00,07:30:00,Arnulf,20,1,21
223,2023.04.03,07:30:00,07:45:00,Arnulf,17,3,20
224,2023.04.03,07:45:00,08:00:00,Arnulf,37,0,37
225,2023.04.03,08:00:00,08:15:00,Arnulf,33,0,33
226,2023.04.03,08:15:00,08:30:00,Arnulf,28,3,31
227,2023.04.03,08:30:00,08:45:00,Arnulf,44,0,44
228,2023.04.03,08:45:00,09:00:00,Arnulf,46,2,48
229,2023.04.03,09:00:00,09:15:00,Arnulf,34,1,35
230,2023.04.03,09:15:00,09:30:00,Arnulf,26,0,26
231,2023.04.03,09:30:00,09:45:00,Arnulf,13,1,14
232,2023.04.03,09:45:00,10:00:00,Arnulf,12,0,12
233,2023.04.03,10:00:00,10:15:00,Arnulf,13,1,14
234,2023.04.03,10:15:00,10:30:00,Arnulf,13,1,14
235,2023.04.03,10:30:00,10:45:00,Arnulf,15,1,16
236,2023.04.03,10:45:00,11:00:00,Arnulf,10,0,10
237,2023.04.03,11:00:00,11:15:00,Arnulf,18,0,18
238,2023.04.03,11:15:00,11:30:00,Arnulf,11,1,12
239,2023.04.03,11:30:00,11:45:00,Arnulf,10,0,10
240,2023.04.03,11:45:00,12:00:00,Arnulf,18,0,18
241,2023.04.03,12:00:00,12:15:00,Arnulf,7,0,7
242,2023.04.03,12:15:00,12:30:00,Arnulf,14,0,14
243,2023.04.03,12:30:00,12:45:00,Arnulf,12,0,12
244,2023.04.03,12:45:00,13:00:00,Arnulf,6,0,6
245,2023.04.03,13:00:00,13:15:00,Arnulf,5,1,6
246,2023.04.03,13:15:00,13:30:00,Arnulf,9,1,10
247,2023.04.03,13:30:00,13:45:00,Arnulf,12,0,12
248,2023.04.03,13:45:00,14:00:00,Arnulf,5,1,6
249,2023.04.03,14:00:00,14:15:00,Arnulf,9,2,11
250,2023.04.03,14:15:00,14:30:00,Arnulf,11,1,12
251,2023.04.03,14:30:00,14:45:00,Arnulf,12,4,16
252,2023.04.03,14:45:00,15:00:00,Arnulf,11,1,12
253,2023.04.03,15:00:00,15:15:00,Arnulf,14,1,15
254,2023.04.03,15:15:00,15:30:00,Arnulf,8,1,9
255,2023.04.03,15:30:00,15:45:00,Arnulf,19,2,21
256,2023.04.03,15:45:00,16:00:00,Arnulf,19,0,19
257,2023.04.03,16:00:00,16:15:00,Arnulf,14,2,16
258,2023.04.03,16:15:00,16:30:00,Arnulf,10,3,13
259,2023.04.03,16:30:00,16:45:00,Arnulf,18,0,18
260,2023.04.03,16:45:00,17:00:00,Arnulf,20,5,25
261,2023.04.03,17:00:00,17:15:00,Arnulf,24,1,25
262,2023.04.03,17:15:00,17:30:00,Arnulf,24,0,24
263,2023.04.03,17:30:00,17:45:00,Arnulf,29,2,31
264,2023.04.03,17:45:00,18:00:00,Arnulf,20,2,22
265,2023.04.03,18:00:00,18:15:00,Arnulf,25,1,26
266,2023.04.03,18:15:00,18:30:00,Arnulf,24,3,27
267,2023.04.03,18:30:00,18:45:00,Arnulf,35,0,35
268,2023.04.03,18:45:00,19:00:00,Arnulf,24,0,24
269,2023.04.03,19:00:00,19:15:00,Arnulf,25,1,26
270,2023.04.03,19:15:00,19:30:00,Arnulf,19,1,20
271,2023.04.03,19:30:00,19:45:00,Arnulf,15,2,17
272,2023.04.03,19:45:00,20:00:00,Arnulf,17,1,18
273,2023.04.03,20:00:00,20:15:00,Arnulf,7,2,9
274,2023.04.03,20:15:00,20:30:00,Arnulf,6,1,7
275,2023.04.03,20:30:00,20:45:00,Arnulf,8,1,9
276,2023.04.03,20:45:00,21:00:00,Arnulf,3,0,3
277,2023.04.03,21:00:00,21:15:00,Arnulf,7,0,7
278,2023.04.03,21:15:00,21:30:00,Arnulf,9,1,10
279,2023.04.03,21:30:00,21:45:00,Arnulf,4,0,4
280,2023.04.03,21:45:00,22:00:00,Arnulf,4,1,5
281,2023.04.03,22:00:00,22:15:00,Arnulf,3,3,6
282,2023.04.03,22:15:00,22:30:00,Arnulf,4,0,4
283,2023.04.03,22:30:00,22:45:00,Arnulf,5,1,6
284,2023.04.03,22:45:00,23:00:00,Arnulf,3,1,4
285,2023.04.03,23:00:00,23:15:00,Arnulf,4,1,5
286,2023.04.03,23:15:00,23:30:00,Arnulf,1,3,4
287,2023.04.03,23:30:00,23:45:00,Arnulf,2,1,3
288,2023.04.03,23:45:00,00:00:00,Arnulf,2,0,2
289,2023.04.04,00:00:00,00:15:00,Arnulf,0,1,1
290,2023.04.04,00:15:00,00:30:00,Arnulf,0,0,0
291,2023.04.04,00:30:00,00:45:00,Arnulf,8,0,8
292,2023.04.04,00:45:00,01:00:00,Arnulf,0,0,0
293,2023.04.04,01:00:00,01:15:00,Arnulf,1,0,1
294,2023.04.04,01:15:00,01:30:00,Arnulf,0,0,0
295,2023.04.04,01:30:00,01:45:00,Arnulf,0,0,0
296,2023.04.04,01:45:00,02:00:00,Arnulf,0,0,0
297,2023.04.04,02:00:00,02:15:00,Arnulf,0,0,0
298,2023.04.04,02:15:00,02:30:00,Arnulf,0,0,0
299,2023.04.04,02:30:00,02:45:00,Arnulf,1,1,2
300,2023.04.04,02:45:00,03:00:00,Arnulf,0,0,0
301,2023.04.04,03:00:00,03:15:00,Arnulf,0,0,0
302,2023.04.04,03:15:00,03:30:00,Arnulf,0,0,0
303,2023.04.04,03:30:00,03:45:00,Arnulf,1,0,1
304,2023.04.04,03:45:00,04:00:00,Arnulf,0,0,0
305,2023.04.04,04:00:00,04:15:00,Arnulf,1,0,1
306,2023.04.04,04:15:00,04:30:00,Arnulf,1,0,1
307,2023.04.04,04:30:00,04:45:00,Arnulf,0,2,2
308,2023.04.04,04:45:00,05:00:00,Arnulf,1,0,1
309,2023.04.04,05:00:00,05:15:00,Arnulf,1,0,1
310,2023.04.04,05:15:00,05:30:00,Arnulf,0,0,0
311,2023.04.04,05:30:00,05:45:00,Arnulf,3,0,3
312,2023.04.04,05:45:00,06:00:00,Arnulf,6,0,6
313,2023.04.04,06:00:00,06:15:00,Arnulf,4,0,4
314,2023.04.04,06:15:00,06:30:00,Arnulf,4,0,4
315,2023.04.04,06:30:00,06:45:00,Arnulf,1,0,1
316,2023.04.04,06:45:00,07:00:00,Arnulf,13,0,13
317,2023.04.04,07:00:00,07:15:00,Arnulf,9,1,10
318,2023.04.04,07:15:00,07:30:00,Arnulf,14,1,15
319,2023.04.04,07:30:00,07:45:00,Arnulf,28,0,28
320,2023.04.04,07:45:00,08:00:00,Arnulf,33,1,34
321,2023.04.04,08:00:00,08:15:00,Arnulf,39,1,40
322,2023.04.04,08:15:00,08:30:00,Arnulf,37,0,37
323,2023.04.04,08:30:00,08:45:00,Arnulf,45,2,47
324,2023.04.04,08:45:00,09:00:00,Arnulf,44,0,44
325,2023.04.04,09:00:00,09:15:00,Arnulf,37,2,39
326,2023.04.04,09:15:00,09:30:00,Arnulf,32,2,34
327,2023.04.04,09:30:00,09:45:00,Arnulf,22,1,23
328,2023.04.04,09:45:00,10:00:00,Arnulf,14,0,14
329,2023.04.04,10:00:00,10:15:00,Arnulf,12,0,12
330,2023.04.04,10:15:00,10:30:00,Arnulf,23,0,23
331,2023.04.04,10:30:00,10:45:00,Arnulf,13,3,16
332,2023.04.04,10:45:00,11:00:00,Arnulf,20,0,20
333,2023.04.04,11:00:00,11:15:00,Arnulf,14,1,15
334,2023.04.04,11:15:00,11:30:00,Arnulf,10,0,10
335,2023.04.04,11:30:00,11:45:00,Arnulf,17,0,17
336,2023.04.04,11:45:00,12:00:00,Arnulf,11,0,11
337,2023.04.04,12:00:00,12:15:00,Arnulf,14,0,14
338,2023.04.04,12:15:00,12:30:00,Arnulf,13,2,15
339,2023.04.04,12:30:00,12:45:00,Arnulf,11,0,11
340,2023.04.04,12:45:00,13:00:00,Arnulf,17,2,19
341,2023.04.04,13:00:00,13:15:00,Arnulf,12,0,12
342,2023.04.04,13:15:00,13:30:00,Arnulf,11,1,12
343,2023.04.04,13:30:00,13:45:00,Arnulf,11,0,11
344,2023.04.04,13:45:00,14:00:00,Arnulf,9,1,10
345,2023.04.04,14:00:00,14:15:00,Arnulf,19,0,19
346,2023.04.04,14:15:00,14:30:00,Arnulf,14,3,17
347,2023.04.04,14:30:00,14:45:00,Arnulf,12,0,12
348,2023.04.04,14:45:00,15:00:00,Arnulf,19,0,19
349,2023.04.04,15:00:00,15:15:00,Arnulf,8,1,9
350,2023.04.04,15:15:00,15:30:00,Arnulf,22,2,24
351,2023.04.04,15:30:00,15:45:00,Arnulf,18,1,19
352,2023.04.04,15:45:00,16:00:00,Arnulf,18,0,18
353,2023.04.04,16:00:00,16:15:00,Arnulf,17,0,17
354,2023.04.04,16:15:00,16:30:00,Arnulf,24,0,24
355,2023.04.04,16:30:00,16:45:00,Arnulf,27,2,29
356,2023.04.04,16:45:00,17:00:00,Arnulf,24,1,25
357,2023.04.04,17:00:00,17:15:00,Arnulf,25,4,29
358,2023.04.04,17:15:00,17:30:00,Arnulf,37,1,38
359,2023.04.04,17:30:00,17:45:00,Arnulf,35,2,37
360,2023.04.04,17:45:00,18:00:00,Arnulf,23,2,25
361,2023.04.04,18:00:00,18:15:00,Arnulf,29,0,29
362,2023.04.04,18:15:00,18:30:00,Arnulf,34,2,36
363,2023.04.04,18:30:00,18:45:00,Arnulf,30,0,30
364,2023.04.04,18:45:00,19:00:00,Arnulf,44,0,44
365,2023.04.04,19:00:00,19:15:00,Arnulf,26,2,28
366,2023.04.04,19:15:00,19:30:00,Arnulf,21,1,22
367,2023.04.04,19:30:00,19:45:00,Arnulf,14,1,15
368,2023.04.04,19:45:00,20:00:00,Arnulf,9,2,11
369,2023.04.04,20:00:00,20:15:00,Arnulf,11,1,12
370,2023.04.04,20:15:00,20:30:00,Arnulf,10,1,11
371,2023.04.04,20:30:00,20:45:00,Arnulf,5,0,5
372,2023.04.04,20:45:00,21:00:00,Arnulf,2,0,2
373,2023.04.04,21:00:00,21:15:00,Arnulf,3,3,6
374,2023.04.04,21:15:00,21:30:00,Arnulf,2,0,2
375,2023.04.04,21:30:00,21:45:00,Arnulf,2,2,4
376,2023.04.04,21:45:00,22:00:00,Arnulf,6,1,7
377,2023.04.04,22:00:00,22:15:00,Arnulf,3,1,4
378,2023.04.04,22:15:00,22:30:00,Arnulf,5,0,5
379,2023.04.04,22:30:00,22:45:00,Arnulf,4,1,5
380,2023.04.04,22:45:00,23:00:00,Arnulf,1,2,3
381,2023.04.04,23:00:00,23:15:00,Arnulf,5,0,5
382,2023.04.04,23:15:00,23:30:00,Arnulf,4,0,4
383,2023.04.04,23:30:00,23:45:00,Arnulf,1,0,1
384,2023.04.04,23:45:00,00:00:00,Arnulf,1,1,2
385,2023.04.05,00:00:00,00:15:00,Arnulf,1,0,1
386,2023.04.05,00:15:00,00:30:00,Arnulf,3,0,3
387,2023.04.05,00:30:00,00:45:00,Arnulf,2,0,2
388,2023.04.05,00:45:00,01:00:00,Arnulf,1,0,1
389,2023.04.05,01:00:00,01:15:00,Arnulf,1,0,1
390,2023.04.05,01:15:00,01:30:00,Arnulf,0,0,0
391,2023.04.05,01:30:00,01:45:00,Arnulf,0,0,0
392,2023.04.05,01:45:00,02:00:00,Arnulf,1,0,1
393,2023.04.05,02:00:00,02:15:00,Arnulf,0,1,1
394,2023.04.05,02:15:00,02:30:00,Arnulf,0,0,0
395,2023.04.05,02:30:00,02:45:00,Arnulf,0,0,0
396,2023.04.05,02:45:00,03:00:00,Arnulf,0,0,0
397,2023.04.05,03:00:00,03:15:00,Arnulf,0,0,0
398,2023.04.05,03:15:00,03:30:00,Arnulf,1,0,1
399,2023.04.05,03:30:00,03:45:00,Arnulf,0,0,0
400,2023.04.05,03:45:00,04:00:00,Arnulf,0,0,0
401,2023.04.05,04:00:00,04:15:00,Arnulf,0,0,0
402,2023.04.05,04:15:00,04:30:00,Arnulf,0,0,0
403,2023.04.05,04:30:00,04:45:00,Arnulf,1,0,1
404,2023.04.05,04:45:00,05:00:00,Arnulf,0,0,0
405,2023.04.05,05:00:00,05:15:00,Arnulf,1,2,3
406,2023.04.05,05:15:00,05:30:00,Arnulf,0,0,0
407,2023.04.05,05:30:00,05:45:00,Arnulf,1,0,1
408,2023.04.05,05:45:00,06:00:00,Arnulf,4,0,4
409,2023.04.05,06:00:00,06:15:00,Arnulf,2,1,3
410,2023.04.05,06:15:00,06:30:00,Arnulf,5,2,7
411,2023.04.05,06:30:00,06:45:00,Arnulf,4,1,5
412,2023.04.05,06:45:00,07:00:00,Arnulf,9,0,9
413,2023.04.05,07:00:00,07:15:00,Arnulf,9,0,9
414,2023.04.05,07:15:00,07:30:00,Arnulf,22,0,22
415,2023.04.05,07:30:00,07:45:00,Arnulf,24,1,25
416,2023.04.05,07:45:00,08:00:00,Arnulf,31,2,33
417,2023.04.05,08:00:00,08:15:00,Arnulf,30,0,30
418,2023.04.05,08:15:00,08:30:00,Arnulf,15,4,19
419,2023.04.05,08:30:00,08:45:00,Arnulf,38,0,38
420,2023.04.05,08:45:00,09:00:00,Arnulf,45,3,48
421,2023.04.05,09:00:00,09:15:00,Arnulf,28,0,28
422,2023.04.05,09:15:00,09:30:00,Arnulf,16,2,18
423,2023.04.05,09:30:00,09:45:00,Arnulf,25,0,25
424,2023.04.05,09:45:00,10:00:00,Arnulf,14,3,17
425,2023.04.05,10:00:00,10:15:00,Arnulf,15,1,16
426,2023.04.05,10:15:00,10:30:00,Arnulf,19,1,20
427,2023.04.05,10:30:00,10:45:00,Arnulf,14,0,14
428,2023.04.05,10:45:00,11:00:00,Arnulf,22,0,22
429,2023.04.05,11:00:00,11:15:00,Arnulf,12,4,16
430,2023.04.05,11:15:00,11:30:00,Arnulf,22,2,24
431,2023.04.05,11:30:00,11:45:00,Arnulf,13,0,13
432,2023.04.05,11:45:00,12:00:00,Arnulf,9,2,11
433,2023.04.05,12:00:00,12:15:00,Arnulf,10,1,11
434,2023.04.05,12:15:00,12:30:00,Arnulf,16,2,18
435,2023.04.05,12:30:00,12:45:00,Arnulf,15,0,15
436,2023.04.05,12:45:00,13:00:00,Arnulf,13,0,13
437,2023.04.05,13:00:00,13:15:00,Arnulf,13,0,13
438,2023.04.05,13:15:00,13:30:00,Arnulf,11,1,12
439,2023.04.05,13:30:00,13:45:00,Arnulf,11,1,12
440,2023.04.05,13:45:00,14:00:00,Arnulf,13,0,13
441,2023.04.05,14:00:00,14:15:00,Arnulf,12,0,12
442,2023.04.05,14:15:00,14:30:00,Arnulf,8,0,8
443,2023.04.05,14:30:00,14:45:00,Arnulf,18,3,21
444,2023.04.05,14:45:00,15:00:00,Arnulf,13,1,14
445,2023.04.05,15:00:00,15:15:00,Arnulf,12,0,12
446,2023.04.05,15:15:00,15:30:00,Arnulf,22,0,22
447,2023.04.05,15:30:00,15:45:00,Arnulf,19,1,20
448,2023.04.05,15:45:00,16:00:00,Arnulf,13,2,15
449,2023.04.05,16:00:00,16:15:00,Arnulf,26,5,31
450,2023.04.05,16:15:00,16:30:00,Arnulf,20,1,21
451,2023.04.05,16:30:00,16:45:00,Arnulf,24,1,25
452,2023.04.05,16:45:00,17:00:00,Arnulf,17,1,18
453,2023.04.05,17:00:00,17:15:00,Arnulf,26,4,30
454,2023.04.05,17:15:00,17:30:00,Arnulf,27,2,29
455,2023.04.05,17:30:00,17:45:00,Arnulf,35,0,35
456,2023.04.05,17:45:00,18:00:00,Arnulf,31,0,31
457,2023.04.05,18:00:00,18:15:00,Arnulf,38,3,41
458,2023.04.05,18:15:00,18:30:00,Arnulf,37,4,41
459,2023.04.05,18:30:00,18:45:00,Arnulf,32,1,33
460,2023.04.05,18:45:00,19:00:00,Arnulf,25,3,28
461,2023.04.05,19:00:00,19:15:00,Arnulf,24,1,25
462,2023.04.05,19:15:00,19:30:00,Arnulf,22,1,23
463,2023.04.05,19:30:00,19:45:00,Arnulf,16,1,17
464,2023.04.05,19:45:00,20:00:00,Arnulf,15,4,19
465,2023.04.05,20:00:00,20:15:00,Arnulf,10,2,12
466,2023.04.05,20:15:00,20:30:00,Arnulf,11,0,11
467,2023.04.05,20:30:00,20:45:00,Arnulf,12,0,12
468,2023.04.05,20:45:00,21:00:00,Arnulf,4,1,5
469,2023.04.05,21:00:00,21:15:00,Arnulf,3,0,3
470,2023.04.05,21:15:00,21:30:00,Arnulf,10,1,11
471,2023.04.05,21:30:00,21:45:00,Arnulf,5,1,6
472,2023.04.05,21:45:00,22:00:00,Arnulf,6,1,7
473,2023.04.05,22:00:00,22:15:00,Arnulf,5,1,6
474,2023.04.05,22:15:00,22:30:00,Arnulf,2,1,3
475,2023.04.05,22:30:00,22:45:00,Arnulf,2,0,2
476,2023.04.05,22:45:00,23:00:00,Arnulf,3,0,3
477,2023.04.05,23:00:00,23:15:00,Arnulf,2,0,2
478,2023.04.05,23:15:00,23:30:00,Arnulf,2,1,3
479,2023.04.05,23:30:00,23:45:00,Arnulf,2,2,4
480,2023.04.05,23:45:00,00:00:00,Arnulf,5,0,5
481,2023.04.06,00:00:00,00:15:00,Arnulf,3,0,3
482,2023.04.06,00:15:00,00:30:00,Arnulf,2,1,3
483,2023.04.06,00:30:00,00:45:00,Arnulf,0,0,0
484,2023.04.06,00:45:00,01:00:00,Arnulf,0,0,0
485,2023.04.06,01:00:00,01:15:00,Arnulf,1,3,4
486,2023.04.06,01:15:00,01:30:00,Arnulf,3,0,3
487,2023.04.06,01:30:00,01:45:00,Arnulf,1,0,1
488,2023.04.06,01:45:00,02:00:00,Arnulf,0,0,0
489,2023.04.06,02:00:00,02:15:00,Arnulf,0,0,0
490,2023.04.06,02:15:00,02:30:00,Arnulf,0,0,0
491,2023.04.06,02:30:00,02:45:00,Arnulf,0,0,0
492,2023.04.06,02:45:00,03:00:00,Arnulf,0,0,0
493,2023.04.06,03:00:00,03:15:00,Arnulf,0,0,0
494,2023.04.06,03:15:00,03:30:00,Arnulf,0,0,0
495,2023.04.06,03:30:00,03:45:00,Arnulf,0,0,0
496,2023.04.06,03:45:00,04:00:00,Arnulf,0,0,0
497,2023.04.06,04:00:00,04:15:00,Arnulf,1,0,1
498,2023.04.06,04:15:00,04:30:00,Arnulf,0,0,0
499,2023.04.06,04:30:00,04:45:00,Arnulf,0,0,0
500,2023.04.06,04:45:00,05:00:00,Arnulf,2,1,3
501,2023.04.06,05:00:00,05:15:00,Arnulf,0,1,1
502,2023.04.06,05:15:00,05:30:00,Arnulf,1,0,1
503,2023.04.06,05:30:00,05:45:00,Arnulf,4,1,5
504,2023.04.06,05:45:00,06:00:00,Arnulf,3,0,3
505,2023.04.06,06:00:00,06:15:00,Arnulf,5,1,6
506,2023.04.06,06:15:00,06:30:00,Arnulf,4,0,4
507,2023.04.06,06:30:00,06:45:00,Arnulf,9,0,9
508,2023.04.06,06:45:00,07:00:00,Arnulf,6,0,6
509,2023.04.06,07:00:00,07:15:00,Arnulf,12,1,13
510,2023.04.06,07:15:00,07:30:00,Arnulf,18,1,19
511,2023.04.06,07:30:00,07:45:00,Arnulf,21,2,23
512,2023.04.06,07:45:00,08:00:00,Arnulf,22,1,23
513,2023.04.06,08:00:00,08:15:00,Arnulf,17,1,18
514,2023.04.06,08:15:00,08:30:00,Arnulf,25,0,25